Location: Le Petit-Vavre
(46.5081°N, 1.5239°E)
Time: 17:45:45
(UTC+00:00)

DMSP B5D1-3 - Pass Details

Date: 03 March 2021
Orbit: 767 x 780 km, 98.5° (Epoch: 14 April)

Event Time Altitude Azimuth Distance (km) Brightness Sun altitude
Rises 18:47:09 0° 14° (NNE) 3,273 7.6 -11.8°
Reaches altitude 10° 18:49:29 10° 16° (NNE) 2,342 6.9 -12.2°
Maximum altitude 18:54:40 81° 104° (ESE) 796 4.5 -13.1°
Drops below altitude 10° 18:59:49 10° 192° (SSW) 2,328 7.1 -14.0°
Sets 19:02:07 0° 193° (SSW) 3,251 7.9 -14.4°
